This demonstration page uses our WeatherBlox Daily Observations layout. Learn more.

Left ArrowRight Arrow

41.55636, -103.73856

Hourly Observations for December 17, 2017

Temp ( °F °C ) Dew Point ( °F °C ) Humidity (%) Winds ( mph kmh ) Pressure ( in mb ) Visibility ( mi km ) Precip ( " mm )
12:53 am 00:53 Cloudy 32 undefined 27 -2.8 82 82 ENE 8 13 30.03 1017 10 16 N/A
1:53 am 01:53 Cloudy 31 -0.6 28 -2.2 89 89 E 7 11 30.04 1017 10 16 N/A
2:49 am 02:49 Cloudy 30 -1 28 -2 93 93 ENE 7 11 30.12 1020 7 11 N/A
2:53 am 02:53 Cloudy 31 -0.6 29 -1.7 92 92 ENE 7 11 30.05 1018 7 11 N/A
3:08 am 03:08 Cloudy 30 -1 28 -2 93 93 ENE 6 9 30.12 1020 8 13 N/A
3:51 am 03:51 Cloudy 30 -1 30 -1 100 100 NE 3 6 30.12 1020 9 14 N/A
3:53 am 03:53 Cloudy 31 -0.6 30 -1.1 96 96 ENE 5 7 30.06 1018 9 14 N/A
4:37 am 04:37 Cloudy 31 -0.6 30 -1.1 96 96 N N/A 30.12 1020 10 16 N/A
4:53 am 04:53 Cloudy 31 -0.6 29 -1.7 92 92 N N/A 30.06 1018 10 16 N/A
5:53 am 05:53 Cloudy 31 -0.6 29 -1.7 92 92 N N/A 30.09 1019 10 16 N/A
6:23 am 06:23 Cloudy 31 -0.6 29 -1.7 92 92 N N/A 30.15 1021 10 16 N/A
6:53 am 06:53 Cloudy 31 -0.6 29 -1.7 92 92 N N/A 30.09 1019 10 16 N/A
7:53 am 07:53 Cloudy 31 -0.6 30 -1.1 96 96 SSW 6 9 30.09 1019 8 13 N/A
8:53 am 08:53 Cloudy 32 undefined 30 -1.1 92 92 SSE 3 6 30.08 1019 8 13 N/A
9:03 am 09:03 Cloudy 32 undefined 30 -1.1 92 92 SE 7 11 30.15 1021 8 13 N/A
9:53 am 09:53 Cloudy 35 1.7 30 -1.1 82 82 SSW 5 7 30.07 1018 10 16 N/A
10:16 am 10:16 Partly Cloudy 36 2 28 -2 75 75 SW 6 9 30.09 1019 10 16 N/A
10:53 am 10:53 Mostly Cloudy 38 3.3 29 -1.7 70 70 S 5 7 30.01 1016 10 16 N/A
11:53 am 11:53 Mostly Sunny 42 5.6 28 -2.2 58 58 WSW 6 9 29.96 1015 10 16 N/A
12:53 pm 12:53 Partly Cloudy 44 6.7 26 -3.3 49 49 W 10 17 29.92 1013 10 16 N/A
1:53 pm 13:53 Sunny 46 7.8 27 -2.8 47 47 W 14 22 29.88 1012 10 16 N/A
2:53 pm 14:53 Sunny 48 8.9 21 -6.1 34 34 W 14 22 29.84 1011 10 16 N/A
3:53 pm 15:53 Sunny 46 7.8 17 -8.3 31 31 W 20 31 29.86 1011 10 16 N/A
4:53 pm 16:53 Clear 42 5.6 17 -8.3 36 36 W 17 28 29.90 1013 10 16 N/A
5:53 pm 17:53 Clear 40 4.4 18 -7.8 41 41 W 14 22 29.91 1013 10 16 N/A
6:53 pm 18:53 Clear 31 -0.6 17 -8.3 56 56 WNW 7 11 29.97 1015 10 16 N/A
7:53 pm 19:53 Clear 27 -2.8 15 -9.4 61 61 W 6 9 30.01 1016 10 16 N/A
8:53 pm 20:53 Clear 24 -4.4 13 -10.6 62 62 WNW 5 7 30.01 1016 10 16 N/A
9:53 pm 21:53 Clear 22 -5.6 12 -11.1 66 66 N 6 9 30.01 1016 10 16 N/A
10:53 pm 22:53 Clear 22 -5.6 12 -11.1 66 66 N 8 13 30.03 1017 10 16 N/A
11:53 pm 23:53 Clear 21 -6.1 12 -11.1 68 68 S 3 6 30.01 1016 10 16 N/A

Powered by AerisWeather